Location: Christianberg
(48.9086°N, 14.0209°E)
Time: 19:49:02
(UTC+00:00)

USA 308 - Pass Details

Date: 20 June 2021
Orbit: 566 x 576 km, 54.0° (Epoch: 13 July)

Event Time Altitude Azimuth Distance (km) Brightness Sun altitude
Exits shadow 00:51:58 23° 198° (SSW) 1,217 3.9 -13.8°
Maximum altitude 00:54:07 42° 141° (SE) 820 3.5 -13.7°
Drops below altitude 10° 00:58:07 10° 71° (ENE) 1,866 6.2 -13.4°
Sets 01:00:27 0° 64° (ENE) 2,766 7.3 -13.2°
